Location: �mondeville
(49.4591°N, 1.3431°W)
Time: 23:18:23
(UTC+00:00)

Cosmos 2333 Rocket - Pass Details

Date: 22 October 2019
Orbit: 838 x 864 km, 70.8° (Epoch: 21 November)

Event Time Altitude Azimuth Distance (km) Brightness Sun altitude
Exits shadow 03:51:34 53° 336° (NNW) 1,043 2.5 -27.3°
Drops below altitude 10° 03:56:27 10° 23° (NNE) 2,493 5.1 -26.6°
Sets 03:58:58 0° 28° (NNE) 3,436 6.0 -26.2°
